This is the latest recevied weather packets stored in our database for station/object KC1TWD. If no packets are shown the sender has not sent any weather packets the latest 10 day(s).
| Time | Temp. | Humidity | Pressure | Rain* | Wind** | Luminosity | Snow |
|---|---|---|---|---|---|---|---|
| 1777921993 | 21.67° C | 36% | 1005.8 hPa | 0 mm | - | - | - |
| 1777921688 | 21.11° C | 35% | 1006.1 hPa | 0 mm | - | - | - |
| 1777921384 | 21.11° C | 33% | 1005.8 hPa | 0 mm | - | - | - |
| 1777921081 | 21.11° C | 34% | 1005.7 hPa | 0 mm | - | - | - |
| 1777920778 | 21.67° C | 33% | 1005.9 hPa | 0 mm | - | - | - |
| 1777920474 | 22.22° C | 33% | 1006 hPa | 0 mm | - | - | - |
| 1777920170 | 21.67° C | 34% | 1005.8 hPa | 0 mm | - | - | - |
| 1777919866 | 21.11° C | 33% | 1005.8 hPa | 0 mm | - | - | - |
| 1777919563 | 20.56° C | 35% | 1005.9 hPa | 0 mm | - | - | - |
| 1777919261 | 20° C | 36% | 1006.1 hPa | 0 mm | - | - | - |
| 1777918958 | 20° C | 38% | 1006.1 hPa | 0 mm | - | - | - |
| 1777918656 | 20° C | 35% | 1005.9 hPa | 0 mm | - | - | - |
| 1777918352 | 19.44° C | 36% | 1006.1 hPa | 0 mm | - | - | - |
| 1777918052 | 19.44° C | 36% | 1006.1 hPa | 0 mm | - | - | - |
| 1777917750 | 19.44° C | 37% | 1006.2 hPa | 0 mm | - | - | - |
| 1777917447 | 19.44° C | 37% | 1006.3 hPa | 0 mm | - | - | - |
| 1777917144 | 20° C | 37% | 1006.4 hPa | 0 mm | - | - | - |
| 1777916842 | 20.56° C | 34% | 1006.3 hPa | 0 mm | - | - | - |
| 1777916540 | 21.11° C | 34% | 1006.1 hPa | 0 mm | - | - | - |
| 1777916236 | 21.11° C | 34% | 1006.4 hPa | 0 mm | - | - | - |
| 1777915933 | 21.11° C | 37% | 1006.5 hPa | 0 mm | - | - | - |
| 1777915629 | 20.56° C | 34% | 1006.5 hPa | 0 mm | - | - | - |
| 1777915326 | 20° C | 35% | 1006.5 hPa | 0 mm | - | - | - |
| 1777915022 | 19.44° C | 36% | 1006.4 hPa | 0 mm | - | - | - |
| 1777914719 | 20° C | 35% | 1006.6 hPa | 0 mm | - | - | - |
* Rain latest hour (hover to see other rain measurements)
** Current wind speed in m/s (hover to see current wind gust speed)